DLH85M LFML-EDDF

Flight info

Callsign DLH85M
Flight time N/A
Altitude 34000
Route ETREK6B ETREK DCT LUXAN DCT LTP DCT SOPLO DCT OMASI DCT KINNI DCT SOSAL DCT KORED DCT BERSU DCT DITON/N0450F330 DCT LADOL/N0449F340 T163 EMPAX EMPAX5B
Aircraft A320/M-SDE3FGHIRWY/LB1

Departure

Time 2026-05-04 12:56
Airport Marseille Provence Airport (LFML)

Arrival

Time N/A
Airport Frankfurt Main Airport (EDDF)
Time Latitude Longitude Altitude Speed Heading
2026-05-04 11:34 43.43930 5.22238 43 ft 0 kts 63°
2026-05-04 12:45 43.43926 5.22229 43 ft 4 kts 45°
2026-05-04 12:45 43.43912 5.22205 42 ft 4 kts 61°
2026-05-04 12:45 43.43904 5.22172 42 ft 4 kts 95°
2026-05-04 12:45 43.43911 5.22147 40 ft 1 kts 142°
2026-05-04 12:46 43.43915 5.22143 36 ft 0 kts 142°
2026-05-04 12:49 43.43909 5.22149 40 ft 4 kts 143°
2026-05-04 12:49 43.43868 5.22142 40 ft 10 kts 215°
2026-05-04 12:50 43.43804 5.22057 42 ft 16 kts 224°
2026-05-04 12:50 43.43806 5.21947 41 ft 18 kts 317°
2026-05-04 12:50 43.43905 5.21808 37 ft 21 kts 314°
2026-05-04 12:50 43.43981 5.21683 34 ft 14 kts 285°
2026-05-04 12:51 43.43935 5.21577 33 ft 13 kts 225°
2026-05-04 12:51 43.43932 5.21473 31 ft 12 kts 303°
2026-05-04 12:51 43.43988 5.21389 30 ft 12 kts 314°
2026-05-04 12:51 43.44050 5.21301 28 ft 13 kts 314°
2026-05-04 12:52 43.44130 5.21186 25 ft 19 kts 315°
2026-05-04 12:52 43.44225 5.21054 21 ft 19 kts 313°
2026-05-04 12:52 43.44301 5.20903 18 ft 19 kts 298°
2026-05-04 12:52 43.44379 5.20763 18 ft 18 kts 314°
2026-05-04 12:53 43.44460 5.20647 18 ft 16 kts 314°
2026-05-04 12:53 43.44534 5.20542 17 ft 15 kts 314°
2026-05-04 12:53 43.44602 5.20446 17 ft 16 kts 314°
2026-05-04 12:53 43.44708 5.20292 17 ft 27 kts 315°
2026-05-04 12:54 43.44835 5.20115 18 ft 20 kts 314°
2026-05-04 12:54 43.44919 5.19994 17 ft 15 kts 314°
2026-05-04 12:54 43.44982 5.19888 19 ft 13 kts 289°
2026-05-04 12:54 43.44944 5.19792 17 ft 11 kts 218°
2026-05-04 12:55 43.44879 5.19783 18 ft 9 kts 155°
2026-05-04 12:55 43.44827 5.19853 17 ft 12 kts 134°
2026-05-04 12:55 43.44707 5.20027 18 ft 53 kts 134°
2026-05-04 12:55 43.44308 5.20595 19 ft 112 kts 134°
2026-05-04 12:56 43.43656 5.21524 44 ft 156 kts 134°
2026-05-04 12:56 43.42945 5.22517 865 ft 134 kts 135°
2026-05-04 12:56 43.42327 5.23490 1473 ft 136 kts 113°
2026-05-04 12:56 43.42317 5.24825 1991 ft 150 kts 85°
2026-05-04 12:57 43.42586 5.26263 2502 ft 161 kts 83°
2026-05-04 12:57 43.42945 5.27828 2880 ft 182 kts 71°
2026-05-04 12:57 43.43699 5.29375 3172 ft 209 kts 56°
2026-05-04 12:57 43.44844 5.30704 3604 ft 228 kts 37°
2026-05-04 12:58 43.46357 5.31547 4154 ft 243 kts 14°
2026-05-04 12:58 43.48064 5.31580 4782 ft 250 kts 346°
2026-05-04 12:58 43.49663 5.30692 5472 ft 250 kts 324°
2026-05-04 12:58 43.51143 5.29408 6181 ft 252 kts 323°
2026-05-04 12:59 43.52620 5.28123 6958 ft 250 kts 324°
2026-05-04 12:59 43.54093 5.26844 7656 ft 252 kts 322°
2026-05-04 12:59 43.55683 5.25652 8062 ft 273 kts 335°
2026-05-04 12:59 43.57508 5.24687 8404 ft 295 kts 336°
2026-05-04 13:00 43.59475 5.23716 9036 ft 303 kts 336°
2026-05-04 13:00 43.61487 5.22750 9822 ft 308 kts 337°
2026-05-04 13:00 43.63537 5.21767 10400 ft 320 kts 338°
2026-05-04 13:00 43.65716 5.20708 10647 ft 344 kts 338°
2026-05-04 13:01 43.68043 5.19567 10813 ft 366 kts 337°
2026-05-04 13:01 43.70494 5.18359 11204 ft 379 kts 337°
2026-05-04 13:01 43.73001 5.17129 11797 ft 385 kts 338°
2026-05-04 13:01 43.75535 5.15885 12460 ft 389 kts 338°
2026-05-04 13:02 43.78056 5.14644 13140 ft 392 kts 338°
2026-05-04 13:02 43.80639 5.13366 13791 ft 396 kts 337°
2026-05-04 13:02 43.83246 5.12066 14348 ft 401 kts 337°
2026-05-04 13:02 43.85876 5.10754 14936 ft 403 kts 337°
2026-05-04 13:03 43.88555 5.09548 15532 ft 408 kts 343°
2026-05-04 13:03 43.91364 5.08830 16109 ft 412 kts 348°
2026-05-04 13:03 43.94202 5.08187 16733 ft 415 kts 348°
2026-05-04 13:03 43.97061 5.07541 17329 ft 418 kts 348°
2026-05-04 13:04 43.99903 5.06898 17911 ft 421 kts 348°
2026-05-04 13:04 44.02801 5.06236 18507 ft 424 kts 348°
2026-05-04 13:04 44.05722 5.05567 19052 ft 427 kts 348°
2026-05-04 13:04 44.08668 5.04889 19564 ft 430 kts 348°
2026-05-04 13:05 44.11628 5.04208 20052 ft 433 kts 348°
2026-05-04 13:05 44.14610 5.03517 20522 ft 435 kts 348°
2026-05-04 13:05 44.17609 5.02823 20987 ft 438 kts 348°
2026-05-04 13:05 44.20624 5.02128 21445 ft 441 kts 348°
2026-05-04 13:06 44.23616 5.01438 21889 ft 443 kts 348°
2026-05-04 13:06 44.26669 5.00736 22321 ft 446 kts 348°
2026-05-04 13:06 44.29740 5.00030 22737 ft 448 kts 348°
2026-05-04 13:06 44.32827 4.99317 23154 ft 451 kts 348°
2026-05-04 13:07 44.35929 4.98604 23542 ft 454 kts 349°
2026-05-04 13:07 44.39098 4.98447 23863 ft 460 kts
2026-05-04 13:07 44.42222 4.99480 24171 ft 465 kts 20°
2026-05-04 13:07 44.45245 5.01146 24504 ft 468 kts 21°
2026-05-04 13:08 44.48233 5.02830 24824 ft 470 kts 21°
2026-05-04 13:08 44.51273 5.04557 25146 ft 473 kts 21°
2026-05-04 13:08 44.54327 5.06295 25457 ft 475 kts 21°
2026-05-04 13:08 44.57393 5.08036 25767 ft 477 kts 21°
2026-05-04 13:09 44.60477 5.09781 26070 ft 479 kts 21°
2026-05-04 13:09 44.63574 5.11533 26352 ft 481 kts 21°
2026-05-04 13:09 44.66686 5.13291 26634 ft 483 kts 21°
2026-05-04 13:09 44.69805 5.15055 26900 ft 485 kts 21°
2026-05-04 13:10 44.72903 5.16808 27151 ft 487 kts 21°
2026-05-04 13:10 44.76051 5.18593 27399 ft 489 kts 21°
2026-05-04 13:10 44.79215 5.20390 27654 ft 491 kts 21°
2026-05-04 13:10 44.82390 5.22195 27893 ft 493 kts 21°
2026-05-04 13:11 44.85575 5.24009 28120 ft 495 kts 21°
2026-05-04 13:11 44.88772 5.25835 28360 ft 496 kts 21°
2026-05-04 13:11 44.91972 5.27664 28649 ft 496 kts 21°
2026-05-04 13:11 44.95171 5.29489 28970 ft 496 kts 21°
2026-05-04 13:12 44.98367 5.31312 29289 ft 495 kts 21°
2026-05-04 13:12 45.01516 5.33110 29605 ft 495 kts 21°
2026-05-04 13:12 45.04708 5.34935 29949 ft 495 kts 21°
2026-05-04 13:12 45.07895 5.36763 30229 ft 494 kts 21°
2026-05-04 13:13 45.11075 5.38598 30524 ft 493 kts 21°
2026-05-04 13:13 45.14245 5.40431 30824 ft 491 kts 21°
2026-05-04 13:13 45.17405 5.42259 31101 ft 491 kts 21°
2026-05-04 13:13 45.20567 5.44086 31386 ft 491 kts 21°
2026-05-04 13:14 45.23726 5.45913 31614 ft 491 kts 21°
2026-05-04 13:14 45.26888 5.47738 31869 ft 491 kts 21°
2026-05-04 13:14 45.30011 5.49545 32105 ft 491 kts 21°
2026-05-04 13:14 45.33175 5.51378 32355 ft 491 kts 21°
2026-05-04 13:15 45.36339 5.53212 32602 ft 491 kts 21°
2026-05-04 13:15 45.39504 5.55048 32863 ft 491 kts 21°
2026-05-04 13:15 45.42667 5.56886 33097 ft 491 kts 20°
2026-05-04 13:15 45.45833 5.58727 33400 ft 492 kts 21°
2026-05-04 13:16 45.48996 5.60571 33697 ft 492 kts 21°
2026-05-04 13:16 45.52166 5.62422 33975 ft 492 kts 21°
2026-05-04 13:16 45.55295 5.64252 34271 ft 492 kts 21°
2026-05-04 13:16 45.58464 5.66108 34563 ft 492 kts 21°
2026-05-04 13:17 45.61632 5.67961 34843 ft 492 kts 20°
2026-05-04 13:17 45.64797 5.69818 35073 ft 492 kts 21°
2026-05-04 13:17 45.67961 5.71683 35273 ft 492 kts 21°
2026-05-04 13:17 45.71081 5.73686 35482 ft 492 kts 27°
2026-05-04 13:18 45.73993 5.76265 35718 ft 493 kts 36°
2026-05-04 13:18 45.76634 5.79390 35914 ft 493 kts 42°
2026-05-04 13:18 45.79184 5.82678 36048 ft 494 kts 42°
2026-05-04 13:19 45.84313 5.89286 36074 ft 496 kts 42°
2026-05-04 13:19 45.89397 5.95861 36090 ft 494 kts 42°
2026-05-04 13:20 45.94494 6.02465 36086 ft 493 kts 42°
2026-05-04 13:20 45.99588 6.09066 36079 ft 493 kts 42°
2026-05-04 13:21 46.04678 6.15676 36090 ft 493 kts 42°
2026-05-04 13:21 46.09722 6.22272 36079 ft 493 kts 43°
2026-05-04 13:22 46.14658 6.29126 36080 ft 493 kts 45°
2026-05-04 13:22 46.19485 6.36143 36082 ft 493 kts 46°
2026-05-04 13:23 46.24321 6.43145 36060 ft 492 kts 45°
2026-05-04 13:23 46.29181 6.50091 36063 ft 491 kts 45°
2026-05-04 13:24 46.34006 6.56984 36063 ft 491 kts 45°
2026-05-04 13:24 46.38853 6.63929 36055 ft 490 kts 45°
2026-05-04 13:25 46.46093 6.74362 36056 ft 489 kts 45°
2026-05-04 13:25 46.50873 6.81280 36051 ft 489 kts 45°
2026-05-04 13:26 46.55665 6.88297 36026 ft 488 kts 48°
2026-05-04 13:26 46.59966 6.95926 36050 ft 487 kts 51°
2026-05-04 13:27 46.64197 7.03526 36051 ft 487 kts 51°
2026-05-04 13:27 46.68450 7.11200 36054 ft 487 kts 51°
2026-05-04 13:28 46.72689 7.18887 36051 ft 487 kts 51°
2026-05-04 13:28 46.76923 7.26584 36042 ft 486 kts 52°
2026-05-04 13:29 46.81151 7.34277 36042 ft 486 kts 52°
2026-05-04 13:29 46.85365 7.41975 36039 ft 485 kts 52°
2026-05-04 13:30 46.89536 7.49624 36043 ft 484 kts 52°
2026-05-04 13:30 46.93715 7.57326 36013 ft 484 kts 52°
2026-05-04 13:31 46.97892 7.65035 36000 ft 482 kts 52°
2026-05-04 13:31 47.02054 7.72745 35994 ft 482 kts 52°
2026-05-04 13:32 47.06185 7.80406 35977 ft 482 kts 52°
2026-05-04 13:32 47.10344 7.88139 35977 ft 483 kts 52°
2026-05-04 13:33 47.15081 7.95028 35983 ft 481 kts 29°
2026-05-04 13:33 47.20967 7.99694 35974 ft 481 kts 26°
2026-05-04 13:34 47.26849 8.04252 35966 ft 481 kts 26°
2026-05-04 13:34 47.32775 8.08864 35978 ft 482 kts 26°
2026-05-04 13:35 47.41662 8.15818 35984 ft 482 kts 27°
2026-05-04 13:36 47.47583 8.20477 35979 ft 482 kts 27°
2026-05-04 13:36 47.53506 8.25147 35994 ft 483 kts 27°
2026-05-04 13:37 47.59390 8.29801 36002 ft 483 kts 27°
2026-05-04 13:37 47.65317 8.34490 35996 ft 483 kts 27°
2026-05-04 13:38 47.71241 8.39194 35999 ft 483 kts 27°
2026-05-04 13:38 47.77163 8.43917 36003 ft 483 kts 27°
2026-05-04 13:39 47.83045 8.48604 35993 ft 482 kts 27°
2026-05-04 13:39 47.88963 8.53321 35997 ft 482 kts 27°
2026-05-04 13:40 47.94860 8.58059 36003 ft 482 kts 27°
2026-05-04 13:40 48.00757 8.62833 36008 ft 482 kts 27°
2026-05-04 13:41 48.06647 8.67596 35999 ft 481 kts 27°
2026-05-04 13:41 48.12534 8.72360 36007 ft 481 kts 27°
2026-05-04 13:42 48.21319 8.79477 36000 ft 480 kts 27°
2026-05-04 13:42 48.27195 8.84252 35989 ft 480 kts 27°
2026-05-04 13:43 48.30133 8.86653 35570 ft 481 kts 27°
2026-05-04 13:43 48.33067 8.89055 34885 ft 480 kts 27°
2026-05-04 13:43 48.36000 8.91459 34204 ft 481 kts 27°
2026-05-04 13:43 48.38941 8.93871 33444 ft 482 kts 27°
2026-05-04 13:44 48.41890 8.96288 32662 ft 484 kts 27°
2026-05-04 13:44 48.44888 8.98403 31905 ft 481 kts 18°
2026-05-04 13:44 48.48074 8.99859 31163 ft 477 kts
2026-05-04 13:44 48.51333 9.00613 30448 ft 473 kts
2026-05-04 13:45 48.54604 9.01100 29678 ft 472 kts
2026-05-04 13:45 48.57866 9.01595 28872 ft 470 kts
2026-05-04 13:45 48.61118 9.02096 28082 ft 469 kts
2026-05-04 13:45 48.64354 9.02631 27316 ft 468 kts
2026-05-04 13:46 48.67572 9.03299 26570 ft 466 kts
2026-05-04 13:46 48.70773 9.04073 25844 ft 465 kts
2026-05-04 13:46 48.73963 9.04903 25138 ft 465 kts
2026-05-04 13:46 48.77095 9.05727 24461 ft 463 kts
2026-05-04 13:47 48.80246 9.06536 24110 ft 452 kts
2026-05-04 13:47 48.83300 9.07296 23944 ft 437 kts
2026-05-04 13:47 48.86241 9.08008 23976 ft 419 kts
2026-05-04 13:47 48.89061 9.08659 23980 ft 402 kts
2026-05-04 13:48 48.91782 9.09149 23904 ft 389 kts
2026-05-04 13:48 48.94472 9.09524 23425 ft 388 kts
2026-05-04 13:48 48.97161 9.09842 22768 ft 391 kts
2026-05-04 13:48 48.99894 9.10157 22080 ft 394 kts
2026-05-04 13:49 49.02641 9.10492 21408 ft 398 kts
2026-05-04 13:49 49.05391 9.10856 21061 ft 392 kts
2026-05-04 13:49 49.08069 9.11235 20970 ft 379 kts
2026-05-04 13:49 49.10669 9.11613 20966 ft 390 kts
2026-05-04 13:50 49.13501 9.12018 20324 ft 428 kts
2026-05-04 13:50 49.16537 9.12449 19692 ft 444 kts
2026-05-04 13:50 49.19614 9.12893 19046 ft 443 kts
2026-05-04 13:50 49.22676 9.13341 18413 ft 441 kts
2026-05-04 13:51 49.25716 9.13789 17742 ft 438 kts
2026-05-04 13:51 49.28694 9.14327 17074 ft 423 kts
2026-05-04 13:51 49.31512 9.15293 16432 ft 407 kts 12°
2026-05-04 13:51 49.34217 9.16255 15803 ft 392 kts 12°
2026-05-04 13:52 49.39339 9.18063 14588 ft 369 kts 12°
2026-05-04 13:52 49.41807 9.18931 13994 ft 359 kts 12°
2026-05-04 13:52 49.44219 9.19778 13355 ft 351 kts 13°
2026-05-04 13:53 49.46572 9.20609 12702 ft 343 kts 13°
2026-05-04 13:53 49.48877 9.21428 12058 ft 337 kts 13°
2026-05-04 13:53 49.51140 9.22237 11427 ft 331 kts 13°
2026-05-04 13:54 49.55592 9.22835 10231 ft 320 kts 347°
2026-05-04 13:54 49.57737 9.22059 10022 ft 313 kts 344°
2026-05-04 13:54 49.61911 9.20413 9996 ft 307 kts 344°
2026-05-04 13:55 49.63941 9.19595 9994 ft 299 kts 344°
2026-05-04 13:55 49.67918 9.17991 9996 ft 297 kts 344°
2026-05-04 13:55 49.69919 9.17186 9992 ft 297 kts 344°
2026-05-04 13:56 49.71918 9.16382 9994 ft 297 kts 344°
2026-05-04 13:56 49.73919 9.15570 9997 ft 297 kts 344°
2026-05-04 13:56 49.77929 9.13938 9677 ft 297 kts 344°
2026-05-04 13:57 49.79914 9.13131 9370 ft 294 kts 344°
2026-05-04 13:57 49.81884 9.12333 9051 ft 291 kts 344°
2026-05-04 13:58 49.87574 9.10038 8130 ft 270 kts 343°
2026-05-04 13:58 49.91196 9.08642 7518 ft 268 kts 344°
2026-05-04 13:58 49.92996 9.07957 7232 ft 264 kts 344°
2026-05-04 13:59 49.94770 9.07284 7013 ft 260 kts 344°
2026-05-04 13:59 49.96530 9.06626 6987 ft 260 kts 344°
2026-05-04 13:59 50.00064 9.05309 6987 ft 261 kts 343°
2026-05-04 14:00 50.01838 9.04648 6837 ft 264 kts 344°
2026-05-04 14:00 50.05355 9.03332 6194 ft 258 kts 344°
2026-05-04 14:00 50.07094 9.02696 5838 ft 255 kts 344°
2026-05-04 14:01 50.08792 9.02073 5486 ft 253 kts 343°
2026-05-04 14:01 50.10505 9.01451 5140 ft 252 kts 344°
2026-05-04 14:01 50.13368 8.98906 4429 ft 237 kts 291°
2026-05-04 14:02 50.13530 8.96448 4078 ft 229 kts 251°
2026-05-04 14:02 50.12693 8.94444 3992 ft 220 kts 227°
2026-05-04 14:02 50.11857 8.92449 3991 ft 222 kts 250°
2026-05-04 14:02 50.11365 8.90217 3983 ft 215 kts 251°
2026-05-04 14:03 50.10886 8.88036 3982 ft 212 kts 251°
2026-05-04 14:03 50.10401 8.85862 3983 ft 211 kts 250°
2026-05-04 14:03 50.09925 8.83762 3983 ft 202 kts 250°
2026-05-04 14:03 50.09452 8.81709 3980 ft 201 kts 250°
2026-05-04 14:04 50.08494 8.77598 3641 ft 201 kts 250°
2026-05-04 14:04 50.08017 8.75576 3390 ft 197 kts 250°